Regional Weather Roundup
Issued by NWS Upton, NY

Current Version | Previous Version | Graphics & Text | Print | Product List | Glossary Off
Versions: 1 2 3 4 5 6 7 8 9 10 11 12 13 14 15 16 17 18 19 20 21 22 23 24 25 26 27 28 29 30 31 32 33 34 35 36 37 38 39 40 41 42 43 44 45 46 47 48 49 50

000
ASUS41 KOKX 041804
RWROKX

REGIONAL WEATHER ROUNDUP
NATIONAL WEATHER SERVICE NEW YORK NY
200 PM EDT FRI SEP 04 2015

NOTE: "FAIR" INDICATES FEW OR NO CLOUDS BELOW 12,000 FEET WITH NO
SIGNIFICANT WEATHER AND/OR OBSTRUCTIONS TO VISIBILITY.

NYZ071-072-176-178-NJZ106-104-041900-
NEW YORK CITY METRO AREA


CITY           SKY/WX    TMP DP  RH WIND       PRES   REMARKS
CENTRAL PARK   CLOUDY    81  66  60 NE8G17    30.14R
LAGUARDIA APRT PTSUNNY   80  67  64 NE13      30.11R
KENNEDY INTL   CLOUDY    80  68  66 E13       30.11R
NEWARK/LIBERTY CLOUDY    81  68  64 E7        30.10R
BRNX BOT. GARD   N/A     79  64  61 NE6       30.14R
TETERBORO      PTSUNNY   81  64  56 E10       30.10R
$$

NYZ177-179-078>081-041900-
LONG ISLAND NEW YORK

CITY           SKY/WX    TMP DP  RH WIND       PRES   REMARKS
FARMINGDALE    CLOUDY    80  66  62 VRB7      30.11R
ISLIP          PTSUNNY   82  66  58 E9        30.10R
SHIRLEY        CLOUDY    81  67  62 NE8       30.12R
WESTHAMPTON    PTSUNNY   80  65  59 NE16G22   30.13R
MONTAUK POINT    N/A     78  65  63 NE10G16   30.13R
$$

NYZ052-065-067-041900-
HUDSON VALLEY

CITY           SKY/WX    TMP DP  RH WIND       PRES   REMARKS
WHITE PLAINS   CLOUDY    78  66  66 E7        30.13R
NEWBURGH       CLOUDY    77  68  73 E9        30.15R
MONTGOMERY     CLOUDY    80  67  64 NE9       30.13S
POUGHKEEPSIE   CLOUDY    81  65  58 VRB3      30.12R
ALBANY         PTSUNNY   81  64  56 VRB3      30.14S
$$

NJZ001-105-106-008-010-013-015-019>022-104-041900-
NEW JERSEY

CITY           SKY/WX    TMP DP  RH WIND       PRES   REMARKS
NEWARK/LIBERTY CLOUDY    81  68  64 E7        30.10R
TETERBORO      PTSUNNY   81  64  56 E10       30.10R
CALDWELL       PTSUNNY   81  66  60 E12       30.11S
MORRISTOWN     CLOUDY    82  70  65 E10       30.11R
SOMERVILLE     CLOUDY    82  69  64 VRB5      30.07S
SUSSEX         CLOUDY    79  67  66 E7        30.12S
ANDOVER          N/A     80  67  64 NE5       30.11S
TRENTON        MOSUNNY   84  67  56 E13G23    30.07F
MILLVILLE      MOSUNNY   90  67  46 E12G21    30.03F HX  93
ATLANTIC CITY  MOSUNNY   85  71  63 NE18      30.05S HX  90
WRIGHTSTOWN    CLOUDY    80  71  75 E14       30.05S
TOMS RIVER     CLOUDY    79  70  73 NE12      30.09S
BELMAR         CLOUDY    75  66  73 E12       30.10S
$$

PAZ047>061-062-071-041900-
EASTERN PENNSYLVANIA

CITY           SKY/WX    TMP DP  RH WIND       PRES   REMARKS
PHILADELPHIA   MOSUNNY   91  69  48 E15G21    30.03F HX  96
ALLENTOWN      PTSUNNY   86  69  56 E9        30.07F HX  90
SCRANTON       PTSUNNY   85  67  54 SE9       30.09S
$$

CTZ002-004>006-009-010-012-RIZ004-006-007-MAZ004-011-015-041900-
SOUTHERN NEW ENGLAND
 IN CT

CITY           SKY/WX    TMP DP  RH WIND       PRES   REMARKS
BRADLEY INTL   PTSUNNY   80  60  50 NE12      30.15R
HARTFORD       MOSUNNY   81  62  52 E6        30.14R
DANBURY        PTSUNNY   79  64  60 NE8       30.14S
WTRBRY/OXFORD  PTSUNNY   79  61  53 NE9       30.17R
BRIDGEPORT     SUNNY     81  67  62 E10       30.12R
MERIDEN        PTSUNNY   84  61  45 VRB7      30.13R
NEW HAVEN      CLOUDY    80  66  62 SE10      30.12R
CHESTER        NOT AVBL
GROTON         MOSUNNY   82  63  52 NE16      30.11R
WILLIMANTIC    PTSUNNY   79  58  48 NE14      30.15S

 IN RI

CITY           SKY/WX    TMP DP  RH WIND       PRES   REMARKS
PROVIDENCE     PTSUNNY   77  59  53 NE16G25   30.16S
BLOCK ISLAND   PTSUNNY   75  64  69 NE14G21   30.14R
WESTERLY       PTSUNNY   80  61  52 NE12G20   30.14R

 IN MA

CITY           SKY/WX    TMP DP  RH WIND       PRES   REMARKS
BOSTON         CLOUDY    68  58  70 NE14      30.20F
WORCESTER      MOSUNNY   72  53  51 E10       30.20S
WESTFIELD      MOSUNNY   80  57  45 NE14      30.16S
PROVINCETOWN     N/A     72  61  68 NE15G21   30.18S
NANTUCKET      PTSUNNY   75  64  68 NE22      30.11S
$$

ANZ330-335-338-340-345-350-353-355-041900-
COASTAL MARINE OBSERVATIONS


STATION/POSITION TIME  SKY/WX   TEMP    WIND        PRES    VSBY  WAVE
                                AIR SEA DIR/SP/G                  HT/PER
                 (UTC)          (F)     (DEG/KT/KT) (MB)    (MI)  (FT/S)
NY HARB ENTRANCE 1650            74 77   70/ 19/ 21 1018.2          4/ 5
4S FIRE IS       NOT AVBL
20S FIRE ISLAND  1650            74 75   60/ 17/ 21 1017.9          4/ 5
GREAT SOUTH BAY  1700            75 80  120/ 16/ 19   N/A
23SW MTP         1750            72 74   60/ 21/ 25 1018.6          5/ 5
HUDSON CANYON    NOT AVBL
KINGS POINT      1700            78 75   40/  5/  8 1018.7
EXECUTION ROCKS  1700            76      80/ 14/ 19   N/A
CENTRAL LI SOUND NOT AVBL
EASTERN LI SOUND 1700            75 71   80/ 10/ 12   N/A
ROBBINS REEF     1700            77     110/ 10/ 12 1018.0
$$


>>>>>>>>>>>>>>>>>>>>>>>>>>>> KEY <<<<<<<<<<<<<<<<<<<<<<<<<<<
>                                                          <
>     SKY/WX - SKY CONDITION/PRESENT WEATHER               <
>     TMP    - TEMPERATURE IN FAHRENHEIT                   <
>     DP     - DEWPOINT IN FAHRENHEIT                      <
>     RH     - RELATIVE HUMIDITY IN PERCENT                <
>     WIND   - DIRECTION AND SPEED IN MPH                  <
>     PRES   - MEAN SEA LEVEL PRESSURE IN INCHES OF HG     <
>     WCI    - WIND CHILL INDEX                            <
>     VSB    - VISIBILITY IN MILES                         <
>     HX     - HEAT INDEX                                  <
>     TC     - TEMPERATURE IN CELSIUS                      <
>     VRB    - VARIABLE WIND DIRECTION                     <
>                                                          <
>>>>>>>>>>>>>>>>>>>>>>>>>>>> KEY <<<<<<<<<<<<<<<<<<<<<<<<<<<





USA.gov is the U.S. government's official web portal to all federal, state and local government web resources and services.